Simultaneous Nadir Overpasses (SNOs) Predictions

Prediction of SNOs between AQUA and NOAA-19 Satellite Orbit:

Table of predicted SNOs for the next 14.0 days since TLE Epoch: 8/5/2016
Index Date (AQUA) Time (AQUA) Lat,Lon (AQUA) SZA (AQUA ) Date (NOAA-19) Time (NOAA-19) Lat,Lon (NOAA-19) SZA (NOAA-19 ) Distance(km) Time Diff (sec)
1 08/07/2016 21:37:53 80.90, 175.86 67.11 08/07/2016 21:37:25 80.89, 175.94 67.11 1.53 28
2 08/07/2016 22:27:19 -80.88, -16.26 112.92 08/07/2016 22:28:26 -80.88, -16.31 112.95 0.93 67
3 08/10/2016 03:11:37 -80.90, -87.60 112.26 08/10/2016 03:11:29 -80.90, -87.74 112.24 2.51 8
4 08/12/2016 08:45:20 80.89, 9.09 68.38 08/12/2016 08:45:28 80.89, 8.93 68.40 2.75 8
5 08/14/2016 13:29:37 80.89, -62.00 69.04 08/14/2016 13:28:29 80.90, -62.03 69.08 1.19 68
6 08/14/2016 14:19:04 -80.89, 105.60 110.95 08/14/2016 14:19:32 -80.89, 105.62 110.96 0.62 28
7 08/16/2016 19:03:21 -80.90, 34.50 110.26 08/16/2016 19:02:34 -80.90, 34.46 110.24 0.86 47
8 08/16/2016 19:52:47 80.89,-157.82 69.74 08/16/2016 19:53:30 80.89,-157.79 69.72 0.59 43
9 08/19/2016 00:37:04 80.90, 131.04 70.45 08/19/2016 00:36:31 80.90, 131.21 70.45 3.01 33




NCC Satellite Simultaneous Nadir Overpasses (SNOs) Prediction Service
